DW7854 Weather Reports


time (UTC)temp
C
wind
direction
speed
KPH
gust
KPH
rain 1hr
cm
rain 24hr
cm
rain mn
cm
humidity
%
barometer
mb
20260509040236 19 0 0.0 0.0 0.00 0.00 0.00 83 1010.3
20260509040005 18 131 0.0 0.0 0.00 0.00 0.00 82 1010.5
20260509035336 19 130 0.0 1.6 0.00 0.00 0.00 82 1010.4
20260509034506 19 131 0.0 1.6 0.00 0.00 0.00 81 1011.0
20260509034436 19 111 0.0 1.6 0.00 0.00 0.00 81 1010.7
20260509033536 19 354 0.0 4.8 0.00 0.00 0.00 82 1010.5
20260509033004 19 355 0.0 8.0 0.00 0.00 0.00 82 1010.8
20260509032636 19 342 4.8 11.3 0.00 0.00 0.00 82 1010.6
20260509031736 19 341 4.8 9.7 0.00 0.00 0.00 81 1010.0
20260509031611 19 355 4.8 9.7 0.00 0.00 0.00 81 1010.2
20260509030836 19 1 3.2 8.0 0.00 0.00 0.00 80 1009.6
20260509030115 19 360 0.0 4.8 0.00 0.00 0.00 80 1009.4
20260509025936 20 32 1.6 4.8 0.00 0.00 0.00 80 1009.2
20260509025036 20 106 0.0 4.8 0.00 0.00 0.00 79 1008.9
20260509024503 19 115 0.0 4.8 0.00 0.00 0.00 80 1008.7
20260509024136 20 148 1.6 4.8 0.00 0.00 0.00 80 1008.3
20260509023236 20 166 1.6 6.4 0.00 0.00 0.00 80 1008.6
20260509023117 19 176 0.0 6.4 0.00 0.00 0.00 80 1008.9
20260509022336 20 161 4.8 9.7 0.00 0.00 0.00 80 1008.4
20260509021509 19 150 4.8 9.7 0.00 0.00 0.00 81 1008.2
20260509021436 20 163 4.8 9.7 0.00 0.00 0.00 81 1007.9
20260509015636 20 220 0.0 1.6 0.00 0.00 0.00 78 1008.4
20260509014609 20 219 0.0 1.6 0.00 0.00 0.00 78 1008.7
20260509013836 21 336 0.0 3.2 0.00 0.00 0.00 77 1008.3
20260509013008 21 346 0.0 1.6 0.00 0.00 0.00 76 1008.5
20260509012936 21 346 0.0 1.6 0.00 0.00 0.00 76 1008.2
20260509012036 21 346 0.0 1.6 0.00 0.00 0.00 75 1008.0
20260509011605 21 346 0.0 1.6 0.00 0.00 0.00 75 1008.3
20260509011136 22 346 0.0 1.6 0.00 0.00 0.00 75 1008.0
20260509010236 22 346 0.0 1.6 0.00 0.00 0.00 73 1007.8
20260509010104 22 346 0.0 1.6 0.00 0.00 0.00 73 1008.0
20260509005336 22 64 0.0 1.6 0.00 0.00 0.00 72 1007.6
20260509004503 22 12 0.0 3.2 0.00 0.00 0.00 72 1007.5
20260509004436 22 22 1.6 3.2 0.00 0.00 0.00 72 1007.2
20260509003106 22 32 0.0 1.6 0.00 0.00 0.00 71 1007.2
20260509002635 23 74 0.0 3.2 0.00 0.00 0.00 71 1007.1
20260509001736 23 110 0.0 3.2 0.00 0.00 0.00 70 1007.3
20260509001605 22 97 0.0 3.2 0.00 0.00 0.00 70 1007.7
20260509000836 23 72 0.0 4.8 0.00 0.00 0.00 70 1007.6
20260509000005 23 77 1.6 4.8 0.00 0.00 0.00 68 1008.1
20260508235936 23 100 1.6 4.8 0.00 0.00 0.00 68 1007.8
20260508235036 23 110 3.2 6.4 0.00 0.00 0.00 67 1007.9
20260508234603 23 136 1.6 6.4 0.00 0.00 0.00 67 1008.3
20260508233104 23 159 1.6 4.8 0.00 0.00 0.00 66 1008.8
20260508232336 23 144 1.6 4.8 0.00 0.00 0.00 66 1008.7
20260508231609 23 150 0.0 8.0 0.00 0.00 0.00 64 1009.0
20260508230536 24 109 1.6 4.8 0.00 0.00 0.00 64 1008.6
20260508230128 24 88 0.0 4.8 0.00 0.00 0.00 62 1009.0
20260508225636 24 186 1.6 4.8 0.00 0.00 0.00 63 1008.9
20260508224736 24 136 1.6 4.8 0.00 0.00 0.00 62 1008.8
20260508224503 24 92 0.0 6.4 0.00 0.00 0.00 61 1009.1
20260508223836 25 148 3.2 6.4 0.00 0.00 0.00 61 1008.9
20260508223007 24 151 3.2 8.0 0.00 0.00 0.00 60 1009.1
20260508222936 25 154 3.2 8.0 0.00 0.00 0.00 60 1008.8
20260508222036 25 159 4.8 11.3 0.00 0.00 0.00 61 1008.7
20260508221508 24 133 3.2 12.9 0.00 0.00 0.00 63 1009.0
20260508221135 25 156 6.4 12.9 0.00 0.00 0.00 61 1008.7
20260508220236 25 152 4.8 11.3 0.00 0.00 0.00 61 1008.6
20260508220011 24 173 1.6 11.3 0.00 0.00 0.00 58 1008.8
20260508215335 24 99 4.8 14.5 0.00 0.00 0.00 60 1008.5
20260508214504 25 109 3.2 9.7 0.00 0.00 0.00 56 1008.9
20260508214435 25 149 6.4 12.9 0.00 0.00 0.00 56 1008.6
20260508213536 25 147 6.4 12.9 0.00 0.00 0.00 59 1008.8
20260508213004 25 143 3.2 11.3 0.00 0.00 0.00 59 1009.1
20260508212636 25 143 6.4 11.3 0.00 0.00 0.00 58 1008.9
20260508211735 25 141 6.4 12.9 0.00 0.00 0.00 60 1008.9
20260508211605 24 149 3.2 12.9 0.00 0.00 0.00 61 1009.2
20260508210835 24 119 6.4 12.9 0.00 0.00 0.00 60 1009.0
20260508210105 25 103 6.4 11.3 0.00 0.00 0.00 58 1009.2
20260508205036 25 175 6.4 17.7 0.00 0.00 0.00 57 1009.1
20260508204508 25 173 4.8 16.1 0.00 0.00 0.00 57 1009.5
20260508204135 25 142 6.4 12.9 0.00 0.00 0.00 57 1009.2
20260508203235 25 172 4.8 11.3 0.00 0.00 0.00 58 1009.3
20260508203005 25 127 0.0 11.3 0.00 0.00 0.00 61 1009.6
20260508202335 25 162 6.4 12.9 0.00 0.00 0.00 61 1009.5
20260508201604 24 140 6.4 12.9 0.00 0.00 0.00 63 1009.9
20260508201436 24 146 3.2 11.3 0.00 0.00 0.00 61 1009.7
20260508200535 25 159 8.0 14.5 0.00 0.00 0.00 61 1009.9
20260508200008 24 150 9.7 16.1 0.00 0.00 0.00 60 1010.3
20260508194735 24 161 6.4 17.7 0.00 0.00 0.00 60 1010.2
20260508194505 24 165 3.2 17.7 0.00 0.00 0.00 60 1010.6
20260508193835 24 160 6.4 17.7 0.00 0.00 0.00 62 1010.5
20260508193107 24 195 4.8 16.1 0.00 0.00 0.00 61 1010.9
20260508192935 24 153 8.0 16.1 0.00 0.00 0.00 58 1010.7
20260508191604 23 168 4.8 12.9 0.00 0.00 0.00 61 1011.1
20260508190235 23 37 1.6 8.0 0.00 0.00 0.00 66 1011.0
20260508190004 23 355 0.0 8.0 0.00 0.00 0.00 63 1011.3
20260508185335 23 105 3.2 11.3 0.00 0.00 0.00 65 1011.2
20260508184505 22 103 1.6 9.7 0.00 0.00 0.00 66 1011.5
20260508184435 22 52 3.2 8.0 0.00 0.00 0.00 65 1011.2
20260508183535 22 78 3.2 11.3 0.00 0.00 0.00 66 1011.4
20260508183008 22 42 4.8 11.3 0.00 0.00 0.00 66 1011.8
20260508182635 22 33 4.8 8.0 0.00 0.00 0.00 66 1011.6
20260508181735 23 156 4.8 11.3 0.00 0.00 0.00 63 1011.9
20260508181505 22 185 4.8 9.7 0.00 0.00 0.00 65 1012.2
20260508180835 23 187 4.8 14.5 0.00 0.00 0.00 64 1012.0
20260508180109 22 144 6.4 14.5 0.00 0.00 0.00 66 1012.6
20260508175935 23 165 6.4 14.5 0.00 0.00 0.00 65 1012.5
20260508175035 23 167 8.0 17.7 0.00 0.00 0.00 65 1012.6
20260508174622 22 159 4.8 17.7 0.00 0.00 0.00 66 1013.0
20260508174135 22 158 6.4 16.1 0.00 0.00 0.00 67 1012.7
20260508173004 21 101 4.8 14.5 0.00 0.00 0.00 66 1013.1
20260508172336 21 174 6.4 14.5 0.00 0.00 0.00 67 1013.1
20260508171509 20 152 4.8 12.9 0.00 0.00 0.00 69 1013.4
20260508171435 21 136 4.8 12.9 0.00 0.00 0.00 69 1013.1
20260508170535 20 122 4.8 12.9 0.00 0.00 0.00 69 1013.1
20260508170106 20 140 3.2 12.9 0.00 0.00 0.00 72 1013.5
20260508164735 20 153 3.2 12.9 0.00 0.00 0.00 74 1013.6
20260508164604 20 184 3.2 9.7 0.00 0.00 0.00 75 1013.9
20260508163835 20 161 3.2 9.7 0.00 0.00 0.00 71 1013.5
20260508163106 19 189 3.2 9.7 0.00 0.00 0.00 74 1013.8
20260508162935 19 159 3.2 9.7 0.00 0.00 0.00 74 1013.5
20260508162035 19 167 3.2 9.7 0.00 0.00 0.00 73 1014.0
20260508161605 18 160 1.6 8.0 0.00 0.00 0.00 76 1014.1
20260508161135 18 127 3.2 8.0 0.00 0.00 0.00 75 1013.7
20260508160235 18 149 6.4 12.9 0.00 0.00 0.00 73 1013.8
20260508160105 18 142 6.4 12.9 0.00 0.00 0.00 73 1014.1
20260508155335 18 142 4.8 11.3 0.00 0.00 0.00 73 1014.0
20260508154607 18 164 3.2 9.7 0.00 0.00 0.00 77 1014.5
20260508154435 18 134 4.8 11.3 0.00 0.00 0.00 76 1014.1
20260508153535 18 152 4.8 8.0 0.00 0.00 0.00 76 1014.0
20260508153104 18 191 4.8 9.7 0.00 0.00 0.00 77 1014.3
20260508152635 18 145 3.2 8.0 0.00 0.00 0.00 80 1014.0
20260508151735 17 125 3.2 6.4 0.00 0.00 0.00 80 1013.8
20260508151503 17 106 1.6 6.4 0.00 0.00 0.00 80 1014.0
20260508150835 17 106 3.2 8.0 0.00 0.00 0.00 81 1013.8
20260508150010 16 28 0.0 8.0 0.00 0.00 0.00 82 1014.2
20260508145935 17 98 3.2 8.0 0.00 0.00 0.00 82 1013.9
20260508144505 16 138 1.6 6.4 0.00 0.00 0.00 83 1014.6
20260508144135 16 102 3.2 4.8 0.00 0.00 0.00 84 1014.2
20260508143235 16 99 1.6 4.8 0.00 0.00 0.00 84 1014.3
20260508143104 15 65 1.6 4.8 0.00 0.00 0.00 85 1014.6
20260508142335 15 18 1.6 4.8 0.00 0.00 0.00 85 1014.5
20260508141509 15 22 1.6 4.8 0.00 0.00 0.00 87 1014.6
20260508140535 15 135 1.6 8.0 0.00 0.00 0.00 90 1014.2
20260508135635 14 123 1.6 4.8 0.00 0.00 0.00 92 1014.6
20260508134617 13 133 1.6 4.8 0.00 0.00 0.00 93 1015.0
20260508133835 14 167 3.2 4.8 0.00 0.00 0.00 94 1015.1
20260508133003 13 148 3.2 4.8 0.00 0.00 0.00 94 1015.5
20260508132935 13 132 1.6 4.8 0.00 0.00 0.00 94 1015.2
20260508131605 13 336 0.0 4.8 0.00 0.00 0.00 94 1015.4
20260508131135 13 321 1.6 3.2 0.00 0.00 0.00 94 1014.6
20260508130235 13 226 1.6 3.2 0.00 0.00 0.00 94 1014.7
20260508130005 12 158 0.0 3.2 0.00 0.00 0.00 94 1015.0
20260508125335 13 334 0.0 3.2 0.00 0.00 0.00 94 1014.9
20260508124511 12 13 0.0 3.2 0.00 0.00 0.00 94 1015.3
20260508123535 12 26 0.0 1.6 0.00 0.00 0.00 95 1014.6
20260508123009 12 45 0.0 4.8 0.00 0.00 0.00 94 1014.9
20260508122635 12 9 1.6 4.8 0.00 0.00 0.00 94 1014.5
20260508121505 12 236 0.0 1.6 0.00 0.00 0.00 94 1014.7
20260508120835 12 188 1.6 3.2 0.00 0.00 0.00 94 1014.3
20260508120004 12 173 0.0 3.2 0.00 0.00 0.00 94 1014.6
20260508115935 12 315 1.6 4.8 0.00 0.00 0.00 94 1014.2
20260508114504 12 355 0.0 4.8 0.00 0.00 0.00 95 1014.4
20260508114135 12 7 1.6 6.4 0.00 0.00 0.00 95 1013.7
20260508113235 12 12 1.6 6.4 0.00 0.00 0.00 95 1013.6
20260508113106 12 5 3.2 6.4 0.00 0.00 0.00 95 1014.0
20260508112335 12 17 1.6 6.4 0.00 0.00 0.00 95 1014.1
20260508111604 12 138 0.0 3.2 0.00 0.00 0.00 95 1014.8
20260508111435 12 8 0.0 3.2 0.00 0.00 0.00 95 1014.5
20260508105635 12 6 1.6 3.2 0.00 0.00 0.00 95 1014.7
20260508104735 12 24 1.6 3.2 0.00 0.00 0.00 95 1014.7
20260508104607 12 5 0.0 3.2 0.00 0.00 0.00 95 1015.1
20260508103004 12 33 1.6 3.2 0.00 0.00 0.00 95 1014.5
20260508102935 12 30 1.6 3.2 0.00 0.00 0.00 95 1014.1
20260508102035 12 21 1.6 4.8 0.00 0.00 0.00 95 1014.1
20260508101508 11 355 1.6 8.0 0.00 0.00 0.00 96 1014.5
20260508101135 12 9 1.6 8.0 0.00 0.00 0.00 95 1014.0
20260508100235 12 1 0.0 1.6 0.00 0.00 0.00 95 1014.0
20260508100105 11 360 0.0 0.0 0.00 0.00 0.00 95 1014.4
20260508095335 12 3 0.0 3.2 0.00 0.00 0.00 95 1014.3
20260508094503 11 360 0.0 3.2 0.00 0.00 0.00 95 1014.4
20260508093535 11 47 0.0 4.8 0.00 0.00 0.00 95 1013.9
20260508093104 11 120 0.0 0.0 0.00 0.00 0.00 95 1014.4
20260508092635 11 0 0.0 0.0 0.00 0.00 0.00 95 1014.2
20260508091735 11 0 0.0 0.0 0.00 0.00 0.00 95 1014.1
20260508091605 11 120 0.0 0.0 0.00 0.00 0.00 95 1014.5
20260508090835 11 0 0.0 0.0 0.00 0.00 0.00 95 1013.8
20260508090106 11 120 0.0 0.0 0.00 0.00 0.00 95 1014.3
20260508085935 11 0 0.0 0.0 0.00 0.00 0.00 95 1013.9
20260508085035 11 0 0.0 0.0 0.00 0.00 0.00 94 1014.0
20260508084504 11 120 0.0 0.0 0.00 0.00 0.00 94 1014.5
20260508083235 11 0 0.0 0.0 0.00 0.00 0.00 94 1014.3
20260508083104 11 120 0.0 0.0 0.00 0.00 0.00 94 1014.7
20260508082335 11 0 0.0 0.0 0.00 0.00 0.00 94 1014.2
20260508081508 11 120 0.0 0.0 0.00 0.00 0.00 94 1014.5
20260508081435 11 0 0.0 0.0 0.00 0.00 0.00 94 1014.0
20260508080535 11 0 0.0 0.0 0.00 0.00 0.00 94 1014.0
20260508080010 11 120 0.0 0.0 0.00 0.00 0.00 93 1014.5
20260508075635 11 0 0.0 0.0 0.00 0.00 0.00 93 1014.2
20260508074735 11 0 0.0 0.0 0.00 0.00 0.00 94 1014.3
20260508074503 11 120 0.0 0.0 0.00 0.00 0.00 94 1014.7
20260508073835 11 0 0.0 0.0 0.00 0.00 0.00 94 1014.4
20260508073004 11 120 0.0 0.0 0.00 0.00 0.00 93 1014.7
20260508072935 11 0 0.0 0.0 0.00 0.00 0.00 93 1014.2
20260508072035 11 0 0.0 0.0 0.00 0.00 0.00 93 1014.3
20260508071608 11 120 0.0 0.0 0.00 0.00 0.00 93 1014.6
20260508070235 12 0 0.0 0.0 0.00 0.00 0.00 93 1014.3
20260508070002 11 120 0.0 0.0 0.00 0.00 0.00 93 1014.8
20260508064509 11 120 0.0 0.0 0.00 0.00 0.00 93 1015.1
20260508064435 12 0 0.0 0.0 0.00 0.00 0.00 93 1014.8
20260508063012 12 120 0.0 0.0 0.00 0.00 0.00 93 1015.1
20260508062635 12 0 0.0 0.0 0.00 0.00 0.00 92 1014.8
20260508061735 12 0 0.0 0.0 0.00 0.00 0.00 92 1014.6
20260508061603 12 120 0.0 0.0 0.00 0.00 0.00 92 1015.0
20260508060835 12 0 0.0 0.0 0.00 0.00 0.00 92 1014.8
20260508060008 12 120 0.0 0.0 0.00 0.00 0.00 92 1015.0
20260508055035 12 0 0.0 0.0 0.00 0.00 0.00 92 1014.6
20260508054603 12 120 0.0 0.0 0.00 0.00 0.00 92 1015.0
20260508053235 12 0 0.0 0.0 0.00 0.00 0.00 91 1014.6
20260508053005 12 120 0.0 0.0 0.00 0.00 0.00 91 1014.9
20260508052335 12 0 0.0 0.0 0.00 0.00 0.00 91 1014.6
20260508051604 12 120 0.0 0.0 0.00 0.00 0.00 91 1015.2
20260508051435 13 0 0.0 0.0 0.00 0.00 0.00 91 1014.8
20260508050535 13 0 0.0 0.0 0.00 0.00 0.00 91 1014.6
20260508050009 12 120 0.0 0.0 0.00 0.00 0.00 91 1014.9
20260508044735 13 0 0.0 0.0 0.00 0.00 0.00 90 1014.8
20260508044503 13 120 0.0 0.0 0.00 0.00 0.00 90 1015.1
20260508043835 13 0 0.0 0.0 0.00 0.00 0.00 90 1014.8
20260508043002 13 120 0.0 0.0 0.00 0.00 0.00 90 1015.2
20260508042035 13 0 0.0 0.0 0.00 0.00 0.00 89 1014.9
20260508041602 13 120 0.0 0.0 0.00 0.00 0.00 89 1015.2